Location: ????????
(55.5667°N, 37.5833°E)
Time: 19:57:48
(UTC+00:00)

SeaSat 1 - Pass Details

Date: 14 April 2026
Orbit: 736 x 740 km, 108.0° (Epoch: 19 May)

Event Time Altitude Azimuth Distance (km) Brightness Sun altitude
Exits shadow 18:03:28 12° 96° (E) 2,100 4.3 -12.0°
Maximum altitude 18:07:20 32° 38° (NE) 1,269 3.7 -12.5°
Drops below altitude 10° 18:11:38 10° 337° (NNW) 2,262 6.0 -12.9°
Sets 18:14:05 0° 327° (NNW) 3,189 7.3 -13.2°
